Regional Weather Roundup
Issued by NWS

Home | Current Version | Previous Version | Text Only | Print | Product List | Glossary Off
Versions: 1 2 3 4 5 6 7 8 9 10 11 12 13 14 15 16 17 18 19 20 21 22 23 24 25 26 27 28 29 30 31 32 33 34 35 36 37 38 39 40 41 42 43 44 45 46 47 48 49 50

000
ASUS43 KMPX 300101
RWRMN
WEATHER ROUNDUP FOR MINNESOTA
NATIONAL WEATHER SERVICE TWIN CITIES/CHANHASSEN MN
800 PM CDT TUE JUL 29 2014


NOTE: "FAIR" INDICATES FEW OR NO CLOUDS BELOW 12,000 FEET WITH NO
SIGNIFICANT WEATHER AND/OR OBSTRUCTIONS TO VISIBILITY. N/A MEANS
CURRENT SKY AND/OR WEATHER CONDITIONS ARE NOT AVAILABLE.

MNZ060>063-068>070-300200-
   Twin Cities Metro

CITY           SKY/WX    TMP DP  RH WIND       PRES   REMARKS
TWIN CITIES    PTCLDY    77  53  43 NW12      30.03S
ST PAUL        CLOUDY    74  57  55 N8        30.03S
CRYSTAL        PTCLDY    76  53  44 NW10      30.03S
BLAINE         MOCLDY    75  57  53 NW7       30.04S
LAKEVILLE      PTCLDY    72  57  60 W7        30.04S
EDEN PRAIRIE   PTCLDY    76  54  46 NW8       30.04R
SOUTH ST PAUL  MOCLDY    73  58  59 CALM      30.03S
LAKE ELMO      MOCLDY    72  59  64 N6        30.04S
$$
MNZ001>005-007-008-013>017-022>024-027-028-300200-
   Northwest Minnesota

CITY           SKY/WX    TMP DP  RH WIND       PRES   REMARKS
BEMIDJI        CLEAR     70  56  60 NW7       30.07F
HALLOCK        CLEAR     73  57  56 NW5       30.08S
ROSEAU         CLEAR     72  59  64 NW6       30.07S
WARROAD        CLEAR     72  55  56 NW7       30.07S
THIEF RVR FALL CLEAR     72  55  56 NW8       30.09S
CROOKSTON      CLEAR     72  61  68 NW5       30.09F
FOSSTON        CLEAR     70  55  60 NW6       30.10S
DETROIT LAKES  CLEAR     70  55  60 NW6       30.11F
MOORHEAD       CLEAR     73  59  60 NE3       30.09F
PARK RAPIDS    PTCLDY    70  55  59 NW8       30.08S
$$
MNZ006-009>011-018-025>026-300200-
   North Central Minnesota

CITY           SKY/WX    TMP DP  RH WIND       PRES   REMARKS
BAUDETTE       CLEAR     71  57  61 NW6       30.06S
FLAG ISLAND    CLEAR     73  57  56 NW13      30.04S
INTL FALLS     CLOUDY    64  60  87 CALM      30.03S
WASKISH        CLEAR     73  57  56 CALM      30.06S
BIG FORK       PTCLDY    72  57  60 N8        30.07R
LONGVILLE      CLEAR     70  55  60 NW3       30.06S
GRAND RAPIDS   CLOUDY    63  54  72 W7        30.05S
CRANE LAKE     MOCLDY    61  59  94 CALM      30.06S THUNDER
ORR            MOCLDY    64  50  59 E3        30.03R THUNDER
COOK           PTCLDY    68  55  64 NW5       30.05R
$$
MNZ012-019>021-037-300200-
   Northeast Minnesota

CITY           SKY/WX    TMP DP  RH WIND       PRES   REMARKS
DULUTH         TSTM      60  54  80 N15       30.06R
ELY            CLOUDY    57  55  94 W3        30.04S
HIBBING        PTCLDY    66  54  65 NW6       30.03S
EVELETH        MOCLDY    64  52  63 CALM      30.04F
DULUTH HARBOR  TSTM      64  57  77 N32G38    30.04R
TWO HARBORS    MOCLDY    59  54  82 CALM      30.03R
SILVER BAY     MOCLDY    57  57 100 CALM      30.02F
GRAND MARAIS     N/A     59  55  87 VRB3      29.99S
G MARAIS ARPRT PTCLDY    55  52  88 CALM      30.03F
$$
MNZ029>031-032-039>041-046>048-054>057-064-300200-
   West Central Minnesota

CITY           SKY/WX    TMP DP  RH WIND       PRES   REMARKS
FERGUS FALLS   CLEAR     72  50  46 N5        30.09S
WHEATON        LGT RAIN  72  57  60 W3        30.11S
MORRIS         CLEAR     72  59  64 NW5       30.08F
ALEXANDRIA     CLEAR     73  52  47 N5        30.10F
ELBOW LAKE     FAIR      71  56  60 N5        30.09S
WADENA         CLEAR     68  55  64 NW5       30.08F
GLENWOOD       CLEAR     72  55  56 NW6       30.10S
APPLETON       CLEAR     73  57  56 W3        30.09S
BENSON         CLEAR     72  55  56 N6        30.09S
ORTONVILLE     CLEAR     73  54  49 N3        30.10S
MADISON        CLEAR     73  57  56 N3        30.10S
WILLMAR        FAIR      73  54  49 NW7       30.10S
$$
MNZ033>034-036-042>043-049>051-058-059-300200-
   Central Minnesota

CITY           SKY/WX    TMP DP  RH WIND       PRES   REMARKS
ST CLOUD       CLEAR     74  53  48 NW6       30.06S
SAUK CENTRE    FAIR      72  55  56 NW6       30.08F
PAYNESVILLE    CLEAR     69  52  54 W7        30.08F
AITKIN         CLEAR     72  57  60 CALM      30.04S
PINE RIVER     CLEAR     72  57  60 NW5       30.10S
BRAINERD       CLEAR     71  54  54 NW8       30.06S
STAPLES        CLEAR     70  54  56 NW7       30.08S
LONG PRAIRIE   FAIR      70  55  60 W5        30.09S
LITTLE FALLS   CLEAR     72  52  49 NW6       30.07S
LITCHFIELD     CLEAR     73  55  53 NW8       30.08S
BUFFALO        CLEAR     73  53  47 NW7       30.06S
MAPLE LAKE     CLEAR     72  58  60 NW3       30.07S
$$
MNZ037-044-045-052-053-300200-
   East Central Minnesota

CITY           SKY/WX    TMP DP  RH WIND       PRES   REMARKS
PRINCETON      CLEAR     73  55  53 W7        30.05S
MORA           CLEAR     70  54  56 NW3       30.06S
CAMBRIDGE      PTCLDY    75  57  53 CALM      30.03S
RUSH CITY      CLEAR     71  56  58 CALM      30.03F
MOOSE LAKE     PTCLDY    68  57  68 CALM      30.01S
HINCKLEY       MOCLDY    72  55  56 CALM      30.03S
CLOQUET        PTCLDY    64  59  82 CALM      30.03S
MCGREGOR       CLEAR     72  55  56 NW5       30.05S
$$
MNZ071>073-080-081-089-090-097-098-300200-
   Southwest Minnesota

CITY           SKY/WX    TMP DP  RH WIND       PRES   REMARKS
MONTEVIDEO     CLEAR     73  55  53 N3        30.10S
GRANITE FALLS  CLEAR     71  57  61 NW5       30.11S
CANBY          PTCLDY    73  54  51 N5        30.12S
MARSHALL       CLEAR     72  55  56 N6        30.10S
REDWOOD FALLS  CLEAR     73  54  51 NW6       30.08F
OLIVIA         CLEAR     72  54  53 NW5       30.08S
PIPESTONE      CLEAR     72  52  49 NW6       30.12F
WINDOM         CLEAR     70  57  64 NW3       30.11S
WORTHINGTON    PTCLDY    70  57  64 N5        30.13F
JACKSON        CLEAR     70  54  56 NW5       30.11F
TRACY          CLEAR     71  56  60 NW5       30.11S
SLAYTON        PTCLDY    71  55  57 CALM      30.13S
$$
MNZ065>067-074>077-082>085-091>093-300200-
   South Central Minnesota

CITY           SKY/WX    TMP DP  RH WIND       PRES   REMARKS
MANKATO        CLEAR     73  54  49 NW7       30.07S
NEW ULM        CLEAR     72  55  56 NW6       30.08S
ST JAMES       CLEAR     73  55  53 W6        30.09F
FAIRMONT       CLEAR     72  48  43 NW6       30.09S
GLENCOE        CLEAR     74  53  47 W9        30.06S
FARIBAULT      CLEAR     75  52  43 W5        30.06S
OWATONNA       CLEAR     72  54  53 W6        30.07R
WASECA         CLEAR     68  52  56 W5        30.08F
ALBERT LEA     CLEAR     72  54  53 NW3       30.07F
$$
MNZ078>079-086>088-094>096-300200-
   Southeast Minnesota

CITY           SKY/WX    TMP DP  RH WIND       PRES   REMARKS
ROCHESTER      MOCLDY    71  56  58 W6        30.07S
RED WING       PTCLDY    68  64  88 W3        30.03R
STANTON        CLOUDY    72  58  60 NE6       30.04R
DODGE CENTER   CLEAR     72  55  56 NW7       30.07R
WINONA         MOCLDY    73  59  60 CALM      30.03S
AUSTIN         CLEAR     72  54  53 NW7       30.06F
PRESTON        CLEAR     68  60  76 NW6       30.07S
$$
ABBREVIATIONS USED IN REMARKS
   TC - TEMPERATURES IN CELSIUS
  WCI - WIND CHILL INDEX
   HX - HEAT INDEX
  VSB - VISIBILITY
$$


USA.gov is the U.S. government's official web portal to all federal, state and local government web resources and services.